Miscellaneous Local Product
Issued by NWS Hastings, NE

Home | Current Version | Previous Version | Text Only | Print | Product List | Glossary On
Versions: 1 2 3 4 5 6 7 8 9 10 11 12 13 14 15 16 17 18 19 20 21 22 23 24 25 26 27 28 29 30 31 32 33 34 35 36 37 38 39 40 41 42 43 44 45 46 47 48 49 50
963
AXUS43 KGID 120602
MISGRI

GID CWA HOURLY WEATHER ROUNDUP
NATIONAL WEATHER SERVICE HASTINGS NE
1200 AM CST FRI FEB 12 2016

NOTE: "FAIR" INDICATES FEW OR NO CLOUDS BELOW 12,000 FEET WITH NO
SIGNIFICANT WEATHER AND/OR OBSTRUCTIONS TO VISIBILITY.

...SOUTH CENTRAL NEBRASKA...

CITY           SKY/WX    TMP DP  RH WIND       PRES   REMARKS
GRAND ISLAND   CLOUDY    31  26  82 N20       30.21R WCI  19
HASTINGS       CLOUDY    32  28  85 N12       30.21R WCI  23
KEARNEY        CLOUDY    32  28  86 N10       30.22R WCI  24
ORD            MOCLDY    29  26  89 N10       30.22R WCI  20
YORK           CLOUDY    25  25 100 N5        30.19R FOG     WCI  19
AURORA         MOCLDY    31  29  92 N16       30.18S WCI  20
LEXINGTON      CLEAR     32  28  85 NW9       30.20S WCI  24
HOLDREGE       CLEAR     35  30  85 N12       30.20R WCI  26
HEBRON         CLEAR     26  25  94 CALM      30.17F FOG

...NEBRASKA PANHANDLE...

CITY           SKY/WX    TMP DP  RH WIND       PRES   REMARKS
CHADRON        CLOUDY    30  27  88 NE5       30.24R WCI  25
ALLIANCE       CLOUDY    31  26  82 NW7       30.21S WCI  24
SCOTTSBLUFF    CLEAR     33  27  78 N3        30.24R
SIDNEY         CLEAR     31  26  82 NW12      30.23F WCI  22

...WESTERN AND NORTH CENTRAL NEBRASKA...

CITY           SKY/WX    TMP DP  RH WIND       PRES   REMARKS
VALENTINE      CLOUDY    29  27  92 CALM      30.23S
AINSWORTH      CLOUDY    29  28  93 NW7       30.22S WCI  22
ONEILL         CLOUDY    27  26  94 NW7       30.23S WCI  20
BROKEN BOW     CLOUDY    32  29  88 N13       30.22R WCI  22
IMPERIAL       CLOUDY    37  28  70 NW8       30.23R WCI  31
NORTH PLATTE   CLEAR     35  29  78 NW7       30.22R WCI  29
MCCOOK         CLOUDY    34  28  79 NW6       30.21R WCI  29

...EASTERN NEBRASKA...

CITY           SKY/WX    TMP DP  RH WIND       PRES   REMARKS
NORFOLK        CLOUDY    26  23  88 NW8       30.22R FOG     WCI  18
SO SIOUX CITY  CLOUDY    20  15  81 NW5       30.26R WCI  13
TEKAMAH        CLOUDY    20  18  92 N9        30.25R WCI   9
COLUMBUS       CLOUDY    27  18  69 N7        30.22R WCI  19
ALBION         CLOUDY    28  24  88 N8        30.21R WCI  19
OMAHA EPPLEY   CLOUDY    24  20  84 N6        30.23R WCI  17
OFFUTT AFB     CLOUDY    26  20  80 N3        30.22R
MILLARD        CLOUDY    27  21  77 CALM      30.22S
LINCOLN        CLOUDY    30  25  81 N5        30.23R WCI  25
NEBRASKA CITY  CLOUDY    30  25  83 N7        30.20S WCI  23
BEATRICE       CLOUDY    28  26  90 NE6       30.19S WCI  22
FALLS CITY     CLOUDY    31  23  72 N5        30.20R WCI  26

...NORTHERN KANSAS...

CITY           SKY/WX    TMP DP  RH WIND       PRES   REMARKS
GOODLAND       CLOUDY    32  27  81 NW8       30.24R WCI  25
HILL CITY      CLEAR     38  31  76 W9        30.19R WCI  31
NORTON         CLEAR     34  27  75 N6        30.20R WCI  29
PHILLIPSBURG   CLEAR     30  30 100 CALM      30.22R
SMITH CENTER   CLEAR     28  27  93 CALM      30.20R
BELOIT         CLEAR     27  27 100 CALM      30.19S
HAYS           CLEAR     30  19  64 W8        30.17R WCI  23
RUSSELL        CLEAR     30  27  88 W7        30.17R WCI  23
CONCORDIA      CLOUDY    28  24  85 W10       30.18S WCI  19
SALINA         CLOUDY    31  24  75 S3        30.18R
TOPEKA         CLEAR     29  21  72 N3        30.18R



USA.gov is the U.S. government's official web portal to all federal, state and local government web resources and services.